Location: Biharia
(46.4333°N, 22.8000°E)
Time: 17:27:45
(UTC+00:00)

COSMOS 2251 DEB - Pass Details

Date: 19 August 2022
Orbit: 557 x 890 km, 74.0° (Epoch: 01 October)

Event Time Altitude Azimuth Distance (km) Brightness Sun altitude
Exits shadow 00:54:19 42° 136° (SE) 831 ? -22.7°
Maximum altitude 00:54:59 47° 107° (ESE) 775 ? -22.7°
Drops below altitude 10° 00:58:55 10° 33° (NNE) 1,863 ? -22.3°
Sets 01:01:08 0° 28° (NNE) 2,753 ? -22.0°
